2019-096A (44905 NORAD) Tracking and Keplerian Element Data

This shows tracking and keplerian element data for the satellite.

Feedback or suggestion? Click here.




ElementValue
Catalog44905
Name2019-096A
Epoch Orbit1216
Epoch Day93.88707912
Epoch Year2020
RAAN49.6404
Inclination82.5248
Eccentricity0.0015263
Argument of Perigee61.6935
Mean Anonmoly298.5682
Mean Motion12.42890778
Decay Rate3.5E-07
L11 44905U 19096A 20093.88707912 .00000035 00000-0 18362-3 0 9994
L22 44905 82.5248 49.6404 0015263 61.6935 298.5682 12.42890778 12165

Live tracking and technical data element details for 2019-096A (NORAD 44905). 2019-096A can be tracked NOW for your location showing map with azimuth and elevation plus other details from your city location.

Track the satellite on the map from your city or location and see movement details for azimuth, elevation, latitude, longitude, range, height, and movement on the map or in text.







IsCatalogInMostPopularTable: catalog: 44905, numindb: 19
Update: records affected: 1



GetName: 44905 2019-096A

Hit Count: updated at: Fri, 10 Apr 2020 19:39:54 GMT